Weather in Grand Canyon Village

United States     36°03′25″N   112°08′12″W
temp.,
°C
wind,
m/s
gust,
m/s
humid.,
%
clouds,
%
prec.,
mm/h
press.,
hPa
HPBL,
m
16 may, sun
sun1623:00+13sse35190 0.0 100970
02:00+11sse33290 0.0 100919
05:00+9sse33350 0.0 101027
08:00+16sse610270 0.0 10091438
11:00+20sw1111160 0.0 10082837
14:00+21sw1111123 0.0 10073583
17:00+19ssw1010100 0.0 10063135
20:00+13sw58215 0.0 1008129
17 may, mon
mon1723:00+10ssw224287 0.0 101010
02:00+9s224630 0.0 101017
05:00+7s3354100 0.0 101126
08:00+13sw33392 0.0 1011589
11:00+18nw442129 0.0 10092823
14:00+20nw551683 0.0 10073526
17:00+20wnw982149 0.0 10063035
20:00+15nnw333383 0.0 100824
18 may, tue
tue1823:00+12w224062 0.0 101011
02:00+11sw224283 0.0 101016
05:00+9ssw225880 0.0 101115
08:00+15w34366 0.0 1010502
11:00+21wnw542294 0.0 10081899
14:00+23wnw6616100 0.0 10062428
17:00+24nw66147 0.0 10043005
20:00+18wnw33253 0.0 100618
19 may, wed
wed1923:00+15sw33332 0.0 100818
02:00+14ssw33355 0.0 100824
05:00+12sse55415 0.0 101052
08:00+18ssw57295 0.0 1009680
11:00+24sw10102040 0.0 10072927
14:00+25sw1312165 0.0 10043429
17:00+24sw12131943 0.0 10032938
20:00+19sw814295 0.0 1005497
20 may, thu
thu2023:00+16ssw612360 0.0 1007278
02:00+13s58440 0.0 1008175
05:00+10sse35540 0.0 100888
08:00+17ssw812270 0.0 10071244
11:00+22ssw1315170 0.0 10052604
14:00+23ssw1517150 0.0 10022887
17:00+22ssw1517181 0.0 10023035
20:00+17ssw1117230 0.0 1003850